contact:dominique.lefevre@mio.osupytheas.fr, maurice.libes@osupytheas.fr
Project:EMSO Ligure-ouest http://www.emso-fr.org/EMSO-France
Sensor Aquadopp, line 13 Serial AQD14315 
DOI : "https://doi.org/10.17882/74513; https://doi.org/10.17882/83244" 
Title:EMSO Ligure Ouest : Data ligne ALBATROSS capteur AQUADOPP - deploiement 2021
Id,Date,Profondeur,Latitude,Longitude,X_East,Y_North,Z_Up,Amplitude_X,Amplitude_Y,Amplitude_Z,Batterie,SoundSpeed,Heading,Pitch,Roll,Pressure,Temperature,Speed,Direction
, , m, degrees North, degrees East, m.s-1, m.s-1,m.s-1, 1, 1, 1, Volt, m.s-1, degree, degree, degree, dbar, degree_C, m.s-1, degree
13,2022-07-06T23:30:00,2400.0,42.79,6.0312,-0.028,0.046,-0.002,74.0,68.0,66.0,13.4,1504.9,358.9,0.3,-1.0,2393.227,13.34,0.053,328.7
13,2022-07-07T00:00:00,2400.0,42.79,6.0312,-0.023,0.048,-0.009,74.0,69.0,72.0,13.4,1504.9,4.5,-0.4,-0.9,2393.217,13.34,0.053,334.4
13,2022-07-07T00:30:00,2400.0,42.79,6.0312,-0.046,0.047,0.0,73.0,69.0,72.0,13.4,1504.9,346.5,-1.3,-0.8,2393.227,13.34,0.065,315.6
13,2022-07-07T01:00:00,2400.0,42.79,6.0312,-0.025,0.064,-0.013,74.0,66.0,72.0,13.4,1504.9,342.8,-0.5,-0.5,2393.262,13.34,0.068,338.7
13,2022-07-07T01:30:00,2400.0,42.79,6.0312,-0.045,0.042,-0.012,69.0,65.0,66.0,13.4,1504.9,345.8,-1.0,-0.7,2393.206,13.34,0.061,313.0
13,2022-07-07T02:00:00,2400.0,42.79,6.0312,-0.022,0.042,-0.02,71.0,66.0,66.0,13.4,1504.9,351.4,-0.7,-0.8,2393.225,13.34,0.047,332.4
13,2022-07-07T02:30:00,2400.0,42.79,6.0312,-0.014,0.032,0.004,72.0,63.0,69.0,13.4,1504.9,351.9,-0.6,-0.8,2393.187,13.34,0.034,336.4
13,2022-07-07T03:00:00,2400.0,42.79,6.0312,-0.014,0.041,-0.035,70.0,66.0,69.0,13.4,1504.9,350.8,-0.6,-0.7,2393.222,13.34,0.043,341.1
13,2022-07-07T03:30:00,2400.0,42.79,6.0312,-0.014,0.023,-0.031,71.0,64.0,69.0,13.4,1504.9,347.5,-0.8,-0.6,2393.161,13.34,0.026,328.7
13,2022-07-07T04:00:00,2400.0,42.79,6.0312,-0.025,0.038,-0.01,69.0,63.0,63.0,13.4,1504.9,345.6,-0.5,-0.7,2393.153,13.34,0.045,326.7
13,2022-07-07T04:30:00,2400.0,42.79,6.0312,-0.034,0.027,-0.007,70.0,64.0,65.0,13.4,1504.9,346.7,-0.3,-0.8,2393.125,13.34,0.043,308.5
13,2022-07-07T05:00:00,2400.0,42.79,6.0312,-0.025,0.044,-0.009,73.0,66.0,70.0,13.4,1504.9,342.9,-0.5,-0.8,2393.154,13.34,0.05,330.4
13,2022-07-07T05:30:00,2400.0,42.79,6.0312,-0.024,0.034,-0.011,71.0,63.0,66.0,13.4,1504.9,349.0,-0.7,-0.7,2393.124,13.34,0.041,324.8
13,2022-07-07T06:00:00,2400.0,42.79,6.0312,-0.051,0.015,-0.007,70.0,63.0,66.0,13.4,1504.9,345.0,-0.5,-0.6,2393.126,13.34,0.053,286.4
13,2022-07-07T07:00:00,2400.0,42.79,6.0312,-0.038,0.008,-0.004,72.0,63.0,65.0,13.4,1504.9,348.9,-0.1,-0.6,2393.122,13.34,0.038,281.9
13,2022-07-07T07:30:00,2400.0,42.79,6.0312,-0.042,0.018,-0.001,71.0,64.0,67.0,13.4,1504.9,345.5,-0.8,-0.7,2393.082,13.34,0.045,293.2
13,2022-07-07T08:00:00,2400.0,42.79,6.0312,-0.044,0.007,0.019,69.0,63.0,68.0,13.4,1504.9,344.5,0.2,-0.6,2393.103,13.34,0.044,279.0
13,2022-07-07T08:30:00,2400.0,42.79,6.0312,-0.059,-0.005,0.018,70.0,64.0,65.0,13.4,1504.9,347.7,0.0,-0.5,2393.08,13.34,0.059,265.2
13,2022-07-07T09:00:00,2400.0,42.79,6.0312,-0.059,0.002,0.034,69.0,65.0,65.0,13.4,1504.9,345.6,0.4,-0.6,2393.094,13.34,0.059,271.9
13,2022-07-07T09:30:00,2400.0,42.79,6.0312,-0.064,0.003,0.012,68.0,61.0,63.0,13.4,1504.9,341.0,-0.6,-0.6,2393.095,13.34,0.064,272.7
13,2022-07-07T10:00:00,2400.0,42.79,6.0312,-0.051,0.023,-0.017,65.0,62.0,65.0,13.4,1504.9,348.5,0.0,-0.8,2393.113,13.34,0.055,294.3
13,2022-07-07T10:30:00,2400.0,42.79,6.0312,-0.067,0.006,0.026,69.0,61.0,63.0,13.4,1504.9,335.8,-0.3,-0.7,2393.107,13.34,0.067,275.1
13,2022-07-07T11:00:00,2400.0,42.79,6.0312,-0.063,0.036,-0.003,71.0,62.0,65.0,13.4,1504.9,342.0,-0.5,-0.8,2393.09,13.34,0.072,299.7
13,2022-07-07T11:30:00,2400.0,42.79,6.0312,-0.063,0.032,-0.005,66.0,63.0,62.0,13.4,1504.9,338.9,-0.2,-0.8,2393.14,13.34,0.07,296.9
13,2022-07-07T12:00:00,2400.0,42.79,6.0312,-0.078,0.027,0.002,66.0,61.0,60.0,13.4,1504.9,341.8,-0.4,-0.8,2393.112,13.34,0.082,289.1
13,2022-07-07T13:00:00,2400.0,42.79,6.0312,-0.074,0.03,-0.028,66.0,59.0,65.0,13.4,1504.9,344.3,0.0,-0.8,2393.166,13.34,0.079,292.1
13,2022-07-07T13:30:00,2400.0,42.79,6.0312,-0.044,0.063,0.002,68.0,61.0,63.0,13.4,1504.9,351.6,-0.4,-0.9,2393.157,13.34,0.076,325.1
13,2022-07-07T14:00:00,2400.0,42.79,6.0312,-0.064,0.045,0.001,67.0,64.0,63.0,13.4,1504.9,332.0,-0.3,-0.7,2393.149,13.34,0.078,305.1
13,2022-07-07T14:30:00,2400.0,42.79,6.0312,-0.07,0.039,-0.01,66.0,59.0,62.0,13.4,1504.9,332.2,-1.1,-0.6,2393.151,13.34,0.08,299.1
13,2022-07-07T15:00:00,2400.0,42.79,6.0312,-0.001,0.079,-0.004,67.0,62.0,65.0,13.4,1504.9,0.5,0.1,-0.9,2393.138,13.34,0.079,359.3
13,2022-07-07T15:30:00,2400.0,42.79,6.0312,-0.069,0.06,-0.017,69.0,64.0,65.0,13.4,1504.9,332.8,-0.5,-0.7,2393.158,13.34,0.091,311.0
13,2022-07-07T16:00:00,2400.0,42.79,6.0312,-0.037,0.057,-0.014,70.0,61.0,66.0,13.4,1504.9,345.4,-1.1,-0.6,2393.099,13.34,0.067,327.0
13,2022-07-07T16:30:00,2400.0,42.79,6.0312,-0.044,0.031,-0.009,69.0,64.0,61.0,13.4,1504.9,314.1,-0.9,-0.6,2393.143,13.34,0.053,305.2
13,2022-07-07T17:00:00,2400.0,42.79,6.0312,-0.02,0.047,-0.018,69.0,62.0,61.0,13.4,1504.9,342.3,-1.0,-0.7,2393.086,13.34,0.051,337.0
13,2022-07-07T17:30:00,2400.0,42.79,6.0312,-0.045,0.061,-0.008,70.0,63.0,64.0,13.4,1504.9,338.6,-0.7,-0.6,2393.096,13.34,0.075,323.6
13,2022-07-07T18:00:00,2400.0,42.79,6.0312,-0.056,0.051,0.008,69.0,61.0,64.0,13.4,1504.9,314.2,-0.9,-0.7,2393.052,13.34,0.075,312.3
13,2022-07-07T18:30:00,2400.0,42.79,6.0312,-0.025,0.052,-0.032,69.0,62.0,65.0,13.4,1504.9,348.2,-0.4,-0.9,2393.06,13.34,0.057,334.3
13,2022-07-07T19:00:00,2400.0,42.79,6.0312,-0.003,0.039,-0.011,70.0,63.0,63.0,13.4,1504.9,337.5,-0.8,-0.7,2393.117,13.34,0.039,355.6
13,2022-07-07T19:30:00,2400.0,42.79,6.0312,-0.026,0.043,0.0,72.0,63.0,67.0,13.4,1504.9,333.6,-0.7,-0.7,2393.063,13.34,0.05,328.8
13,2022-07-07T20:00:00,2400.0,42.79,6.0312,-0.012,0.037,0.022,71.0,64.0,64.0,13.4,1504.9,349.3,-0.7,-0.6,2393.042,13.34,0.038,342.0
13,2022-07-07T20:30:00,2400.0,42.79,6.0312,-0.001,0.025,-0.033,70.0,63.0,67.0,13.4,1504.9,341.2,-0.7,-0.6,2393.088,13.34,0.025,357.7
13,2022-07-07T21:00:00,2400.0,42.79,6.0312,-0.045,0.043,-0.043,69.0,64.0,62.0,13.4,1504.9,345.3,-0.7,-0.7,2393.098,13.34,0.062,313.7
13,2022-07-07T21:30:00,2400.0,42.79,6.0312,-0.003,0.052,-0.01,68.0,62.0,65.0,13.4,1504.9,344.7,-0.8,-0.7,2393.127,13.34,0.052,356.7
13,2022-07-07T22:00:00,2400.0,42.79,6.0312,-0.012,0.015,-0.017,70.0,65.0,67.0,13.4,1504.9,345.8,-0.2,-0.7,2393.108,13.34,0.019,321.3
13,2022-07-07T22:30:00,2400.0,42.79,6.0312,-0.023,0.018,-0.013,71.0,65.0,66.0,13.4,1504.9,343.1,-0.1,-0.7,2393.155,13.34,0.029,308.0
13,2022-07-07T23:00:00,2400.0,42.79,6.0312,-0.022,0.004,-0.012,69.0,61.0,66.0,13.4,1504.9,343.5,0.0,-0.6,2393.102,13.34,0.022,280.3
